1483369201.26,3875,10.81,72432.3,-10.63,-11.77,-11.81,0,*54
1483369202.51,3876,10.81,72420.8,-10.65,-11.89,-11.81,0,*50
1483369203.81,3877,10.81,72434.8,-10.63,-11.93,-11.93,0,*5F
1483369205.09,3878,10.81,72436.8,-10.63,-11.89,-11.81,0,*58
1483369206.37,3879,10.81,72440.0,-10.63,-11.89,-11.81,0,*59
1483369207.64,3880,10.81,72434.5,-10.63,-11.81,-11.81,0,*57
1483369208.9,3881,10.81,72422.3,-10.65,-11.67,-11.81,0,*58
1483369210.18,3882,10.81,72424.5,-10.63,-11.77,-11.81,0,*5C
1483369211.46,3883,10.81,72424.3,-10.63,-11.77,-11.89,0,*55
1483369212.75,3884,10.81,72424.0,-10.63,-11.93,-11.93,0,*53
1483369214.03,3885,10.81,72424.3,-10.63,-11.81,-11.81,0,*52
1483369215.3,3886,10.81,72420.3,-10.63,-11.81,-11.81,0,*51
1483369216.59,3887,10.81,72428.5,-10.63,-11.89,-11.93,0,*5B
1483369217.86,3888,10.81,72424.3,-10.65,-11.93,-12.07,0,*57
1483369219.13,3889,10.81,72416.0,-10.65,-11.93,-11.93,0,*58
1483369220.39,3890,10.81,72410.8,-10.65,-11.89,-11.89,0,*50
1483369221.65,3891,10.81,72416.0,-10.63,-12.03,-11.93,0,*5D
1483369222.91,3892,10.81,72412.3,-10.65,-11.81,-11.93,0,*51
1483369224.16,3893,10.81,72410.3,-10.65,-11.81,-11.81,0,*53
1483369225.44,3894,10.81,72412.3,-10.63,-11.77,-11.77,0,*52
1483369226.7,3895,10.81,72416.3,-10.65,-11.67,-11.67,0,*55
1483369227.99,3896,10.81,72412.5,-10.63,-11.55,-11.63,0,*55
1483369229.28,3897,10.81,72412.5,-10.63,-11.55,-11.55,0,*51
1483369230.54,3898,10.81,72418.0,-10.65,-11.55,-11.55,0,*58
1483369231.83,3899,10.81,72414.5,-10.63,-11.63,-11.55,0,*5A
1483369233.12,3900,10.81,72414.3,-10.63,-11.55,-11.63,0,*5B
1483369234.38,3901,10.81,72410.3,-10.65,-11.63,-11.63,0,*59
1483369235.67,3902,10.81,72416.5,-10.63,-11.55,-11.63,0,*59
1483369236.96,3903,10.81,72422.8,-10.63,-11.55,-11.55,0,*5D
1483369238.25,3904,10.81,72424.0,-10.63,-11.67,-11.63,0,*5E
1483369239.53,3905,10.81,72428.3,-10.63,-11.77,-11.67,0,*5A
1483369240.79,3906,10.81,72418.8,-10.65,-11.77,-11.77,0,*5E
1483369242.06,3907,10.81,72422.5,-10.63,-11.81,-11.77,0,*50
1483369243.34,3908,10.81,72428.5,-10.63,-11.77,-11.77,0,*56
1483369244.6,3909,10.81,72426.8,-10.65,-11.77,-11.67,0,*50
1483369245.89,3910,10.81,72434.3,-10.63,-11.67,-11.67,0,*5F
1483369247.15,3911,10.81,72434.5,-10.65,-11.63,-11.67,0,*5C
1483369248.42,3912,10.81,72432.3,-10.65,-11.63,-11.55,0,*5E
1483369249.7,3913,10.81,72432.3,-10.63,-11.77,-11.77,0,*5C
1483369250.98,3914,10.81,72430.3,-10.63,-11.77,-11.77,0,*5B
1483369252.26,3915,10.81,72430.8,-10.63,-11.77,-11.67,0,*5B
1483369253.54,3916,10.81,72430.3,-10.63,-11.81,-11.89,0,*51
1483369254.82,3917,10.81,72430.8,-10.63,-11.81,-11.67,0,*50
1483369256.1,3918,10.81,72420.8,-10.63,-11.77,-11.77,0,*57
1483369257.38,3919,10.81,72424.5,-10.63,-11.81,-11.77,0,*5F
1483369258.66,3920,10.81,72430.8,-10.63,-11.67,-11.77,0,*5D
1483369259.94,3921,10.81,72434.3,-10.63,-11.77,-11.77,0,*5D
1483369261.22,3922,10.81,72434.8,-10.63,-11.77,-11.77,0,*5E
1483369262.5,3923,10.81,72430.5,-10.63,-11.67,-11.77,0,*5E
1483369263.78,3924,10.81,72428.0,-10.63,-11.67,-11.77,0,*59
1483369265.06,3925,10.81,72424.0,-10.63,-11.77,-11.67,0,*58
1483369266.34,3926,10.81,72426.3,-10.63,-11.67,-11.77,0,*5B
1483369267.63,3927,10.81,72428.3,-10.59,-11.73,-11.73,0,*52
1483369268.91,3928,10.81,72428.3,-10.63,-11.67,-11.81,0,*5C
1483369270.19,3929,10.81,72430.8,-10.63,-11.81,-11.93,0,*56
1483369271.44,3930,10.81,72418.0,-10.63,-11.81,-12.03,0,*54
1483369272.72,3931,10.81,72426.5,-10.63,-11.89,-12.15,0,*5A
1483369273.93,3932,10.81,72422.8,-10.65,-12.03,-12.43,0,*5D
1483369275.17,3933,10.81,72432.0,-10.63,-12.21,-12.43,0,*5A
1483369276.44,3934,10.81,72432.0,-10.63,-12.29,-12.79,0,*5C
1483369277.7,3935,10.81,72426.8,-10.63,-12.53,-13.51,0,*5B
1483369278.98,3936,10.81,72426.5,-10.63,-13.29,-14.51,0,*53
1483369280.25,3937,10.81,72430.0,-10.59,-14.29,-15.43,0,*5E
1483369281.48,3938,10.81,72424.5,-10.63,-14.89,-15.75,0,*57
1483369282.74,3939,10.81,72416.5,-10.65,-14.93,-15.81,0,*50
1483369283.98,3940,10.81,72418.8,-10.65,-15.49,-15.89,0,*50
1483369285.24,3941,10.81,72416.3,-10.63,-15.39,-15.15,0,*55
1483369286.48,3942,10.81,72410.5,-10.63,-15.01,-14.37,0,*5C
1483369287.72,3943,10.81,72406.0,-10.65,-14.15,-13.79,0,*52
1483369288.95,3944,10.81,72398.5,-10.65,-13.79,-13.73,0,*52
1483369290.19,3945,10.81,72404.0,-10.65,-13.73,-14.01,0,*5B
1483369291.41,3946,10.81,72406.8,-10.65,-13.93,-13.79,0,*5E
1483369292.68,3947,10.81,72406.3,-10.65,-14.01,-13.37,0,*59
1483369293.91,3948,10.81,72400.5,-10.65,-13.51,-13.01,0,*51
1483369295.17,3949,10.81,72402.8,-10.63,-13.47,-12.75,0,*53
1483369296.41,3950,10.81,72400.5,-10.65,-13.15,-12.53,0,*5E
1483369297.62,3951,10.81,72392.0,-10.65,-12.89,-12.47,0,*5E
1483369298.85,3952,10.81,72384.8,-10.65,-12.79,-12.47,0,*52
1483369300.11,3953,10.81,72374.5,-10.65,-12.61,-12.35,0,*5F
1483369301.35,3954,10.81,72384.0,-10.65,-12.47,-12.35,0,*5C
1483369302.62,3955,10.81,72406.8,-10.65,-12.35,-12.35,0,*58
1483369303.82,3956,10.81,72380.5,-10.65,-12.43,-12.43,0,*5B
1483369305.08,3957,10.81,72364.3,-10.65,-12.53,-12.65,0,*5F
1483369306.34,3958,10.81,72390.3,-10.65,-12.61,-12.61,0,*55
1483369307.6,3959,10.81,72392.5,-10.67,-12.53,-12.47,0,*53
1483369308.84,3960,10.81,72400.3,-10.65,-12.47,-12.35,0,*5B
1483369310.08,3961,10.81,72392.0,-10.67,-12.43,-12.43,0,*5D
1483369311.34,3962,10.81,72396.3,-10.67,-12.35,-12.29,0,*53
1483369312.58,3963,10.81,72402.0,-10.67,-12.29,-12.21,0,*57
1483369313.85,3964,10.81,72410.3,-10.67,-12.29,-12.07,0,*54
1483369315.12,3965,10.81,72408.0,-10.67,-12.21,-12.07,0,*5D
1483369316.4,3966,10.81,72412.5,-10.67,-12.15,-12.15,0,*5A
1483369317.69,3967,10.81,72424.8,-10.67,-12.07,-12.15,0,*58
1483369318.93,3968,10.81,72428.8,-10.67,-12.21,-12.03,0,*54
1483369320.22,3969,10.81,72424.3,-10.67,-12.15,-11.93,0,*58
1483369321.51,3970,10.81,72426.8,-10.67,-12.07,-11.93,0,*53
1483369322.75,3971,10.81,72428.3,-10.65,-12.03,-11.93,0,*54
1483369324.02,3972,10.81,72430.5,-10.65,-11.93,-11.89,0,*56
1483369325.25,3973,10.81,72428.8,-10.65,-12.03,-11.89,0,*5D
1483369326.49,3974,10.81,72428.8,-10.65,-12.03,-11.93,0,*51
1483369327.77,3975,10.81,72434.3,-10.67,-11.81,-11.81,0,*58
1483369329.06,3976,10.81,72414.8,-10.67,-11.89,-11.89,0,*5B
1483369330.35,3977,10.81,72410.0,-10.67,-11.93,-11.93,0,*5A
1483369331.59,3978,10.81,72422.3,-10.67,-12.03,-12.03,0,*55
1483369332.87,3979,10.81,72420.0,-10.67,-12.15,-12.15,0,*54
1483369334.16,3980,10.81,72416.0,-10.67,-12.15,-12.07,0,*51
1483369335.45,3981,10.81,72412.0,-10.67,-12.07,-12.07,0,*53
1483369336.74,3982,10.81,72412.5,-10.67,-12.15,-12.07,0,*53
1483369338.02,3983,10.81,72402.5,-10.67,-12.07,-12.15,0,*52
1483369339.31,3984,10.81,72404.5,-10.67,-12.07,-12.07,0,*56
1483369340.57,3985,10.81,72404.5,-10.67,-12.07,-12.03,0,*53
1483369341.84,3986,10.81,72402.0,-10.67,-12.03,-11.93,0,*5E
1483369343.13,3987,10.81,72406.0,-10.67,-11.93,-11.93,0,*55
1483369344.37,3988,10.81,72410.8,-10.67,-12.03,-12.03,0,*5A
1483369345.63,3989,10.81,72404.0,-10.67,-12.03,-11.93,0,*51
1483369346.9,3990,10.81,72404.3,-10.65,-11.93,-11.89,0,*5A
1483369348.15,3991,10.81,72408.0,-10.65,-11.81,-11.81,0,*50
1483369349.43,3992,10.81,72414.3,-10.67,-11.81,-11.77,0,*58
1483369350.72,3993,10.81,72420.5,-10.67,-11.67,-11.63,0,*54
1483369352.02,3994,10.81,72422.8,-10.67,-11.63,-11.63,0,*57
1483369353.31,3995,10.81,72426.8,-10.67,-11.63,-11.55,0,*53
1483369354.6,3996,10.81,72426.8,-10.67,-11.63,-11.63,0,*55
1483369355.89,3997,10.81,72422.5,-10.67,-11.63,-11.67,0,*50
1483369357.15,3998,10.81,72426.5,-10.65,-11.55,-11.77,0,*59
1483369358.41,3999,10.81,72422.8,-10.65,-11.63,-11.63,0,*58
1483369359.68,4000,10.81,72430.3,-10.65,-11.67,-11.63,0,*52
1483369360.97,4001,10.81,72430.0,-10.63,-11.55,-11.55,0,*51
1483369362.23,4002,10.81,72428.0,-10.65,-11.63,-11.55,0,*51
1483369363.49,4003,10.81,72428.8,-10.65,-11.55,-11.55,0,*55
1483369364.76,4004,10.81,72424.0,-10.65,-11.55,-11.55,0,*52
1483369366.04,4005,10.81,72416.8,-10.63,-11.55,-11.55,0,*55
1483369367.31,4006,10.81,72410.3,-10.65,-11.63,-11.63,0,*50
1483369368.59,4007,10.81,72410.5,-10.63,-11.55,-11.55,0,*57
1483369369.88,4008,10.81,72418.3,-10.63,-11.55,-11.55,0,*58
1483369371.16,4009,10.81,72410.5,-10.63,-11.55,-11.55,0,*59
1483369372.45,4010,10.81,72410.3,-10.63,-11.55,-11.55,0,*51
1483369373.74,4011,10.81,72418.8,-10.63,-11.67,-11.55,0,*51
1483369375.02,4012,10.81,72408.8,-10.63,-11.63,-11.55,0,*56
1483369376.31,4013,10.81,72418.0,-10.63,-11.55,-11.55,0,*52
1483369377.59,4014,10.81,72432.8,-10.63,-11.55,-11.55,0,*55
1483369378.88,4015,10.81,72428.5,-10.63,-11.55,-11.63,0,*51
1483369380.17,4016,10.81,72432.5,-10.63,-11.63,-11.63,0,*57
1483369381.46,4017,10.81,72432.0,-10.63,-11.63,-11.67,0,*52
1483369382.75,4018,10.81,72434.3,-10.63,-11.77,-11.63,0,*5C
1483369384.03,4019,10.81,72434.0,-10.63,-11.77,-11.77,0,*58
1483369385.3,4020,10.81,72436.0,-10.63,-11.81,-11.81,0,*52
1483369386.59,4021,10.81,72438.8,-10.63,-11.89,-11.89,0,*53
1483369387.84,4022,10.81,72430.0,-10.65,-11.81,-11.77,0,*5F
1483369389.11,4023,10.81,72434.8,-10.63,-11.81,-11.81,0,*51
1483369390.4,4024,10.81,72422.5,-10.63,-11.81,-11.89,0,*5E
1483369391.68,4025,10.81,72428.8,-10.63,-11.81,-11.89,0,*5F
1483369392.95,4026,10.81,72420.3,-10.65,-11.93,-11.93,0,*52
1483369394.21,4027,10.81,72426.5,-10.65,-11.81,-11.89,0,*5B
1483369395.46,4028,10.81,72420.3,-10.65,-11.81,-11.81,0,*5C
1483369396.74,4029,10.81,72414.8,-10.63,-11.89,-11.81,0,*53
1483369398.03,4030,10.81,72412.0,-10.63,-11.93,-11.89,0,*58
1483369399.3,4031,10.81,72412.3,-10.65,-11.93,-11.93,0,*54
1483369400.54,4032,10.81,72418.8,-10.65,-12.03,-11.93,0,*5D
1483369401.83,4033,10.81,72426.3,-10.63,-11.93,-11.93,0,*50
1483369403.06,4034,10.81,72420.3,-10.65,-12.07,-12.03,0,*55
1483369404.3,4035,10.81,72416.0,-10.65,-12.03,-11.93,0,*5A
1483369405.59,4036,10.81,72408.3,-10.63,-12.07,-11.93,0,*5B
1483369406.86,4037,10.81,72422.5,-10.65,-11.93,-11.93,0,*52
1483369408.12,4038,10.81,72410.5,-10.65,-11.89,-11.89,0,*5D
1483369409.41,4039,10.81,72416.3,-10.63,-11.93,-11.89,0,*51
1483369410.68,4040,10.81,72420.3,-10.65,-11.89,-11.89,0,*52
1483369411.95,4041,10.81,72416.8,-10.63,-11.77,-11.81,0,*5C
1483369413.21,4042,10.81,72426.5,-10.65,-11.81,-11.81,0,*50
1483369414.46,4043,10.81,72426.5,-10.65,-11.89,-11.81,0,*59
1483369415.72,4044,10.81,72424.0,-10.65,-11.89,-11.89,0,*56
1483369417.0,4045,10.81,72406.8,-10.63,-11.77,-11.81,0,*58
1483369418.26,4046,10.81,72396.0,-10.65,-11.77,-11.81,0,*5D
1483369419.51,4047,10.81,72394.8,-10.65,-11.81,-11.77,0,*5C
1483369420.77,4048,10.81,72382.0,-10.65,-11.77,-11.77,0,*5A
1483369422.03,4049,10.81,72372.0,-10.65,-11.77,-11.67,0,*5A
1483369423.29,4050,10.81,72364.3,-10.65,-11.67,-11.67,0,*53
1483369424.58,4051,10.81,72390.5,-10.63,-11.77,-11.67,0,*55
1483369425.86,4052,10.81,72390.3,-10.63,-11.67,-11.67,0,*57
1483369427.15,4053,10.81,72394.0,-10.63,-11.67,-11.67,0,*56
1483369428.44,4054,10.81,72414.3,-10.63,-11.55,-11.63,0,*54
1483369429.73,4055,10.81,72414.5,-10.63,-11.55,-11.63,0,*55
1483369431.01,4056,10.81,72414.8,-10.63,-11.55,-11.67,0,*52
1483369432.3,4057,10.81,72416.8,-10.63,-11.55,-11.63,0,*57
1483369433.56,4058,10.81,72412.3,-10.65,-11.63,-11.55,0,*5E
1483369434.83,4059,10.81,72408.8,-10.65,-11.63,-11.63,0,*5A
1483369436.12,4060,10.81,72416.0,-10.63,-11.55,-11.63,0,*53
1483369437.41,4061,10.81,72422.3,-10.63,-11.63,-11.63,0,*57
1483369438.7,4062,10.81,72418.3,-10.63,-11.63,-11.63,0,*54
1483369439.99,4063,10.81,72414.5,-10.63,-11.63,-11.63,0,*55
1483369441.28,4064,10.81,72420.0,-10.63,-11.63,-11.63,0,*52
1483369442.57,4065,10.81,72424.5,-10.63,-11.63,-11.55,0,*56
1483369443.83,4066,10.81,72428.8,-10.65,-11.63,-11.55,0,*53
1483369445.12,4067,10.81,72426.5,-10.63,-11.55,-11.55,0,*51
1483369446.41,4068,10.81,72428.8,-10.63,-11.63,-11.55,0,*5B
1483369447.69,4069,10.81,72428.8,-10.63,-11.55,-11.51,0,*5B
1483369448.98,4070,10.81,72426.3,-10.63,-11.67,-11.63,0,*53
1483369450.26,4071,10.81,72426.8,-10.63,-11.63,-11.55,0,*53
1483369451.55,4072,10.81,72424.0,-10.63,-11.63,-11.63,0,*55
1483369452.84,4073,10.81,72418.8,-10.63,-11.63,-11.63,0,*54
1483369454.13,4074,10.81,72424.3,-10.63,-11.55,-11.55,0,*53
1483369455.41,4075,10.81,72424.0,-10.63,-11.63,-11.51,0,*53
1483369456.7,4076,10.81,72426.3,-10.63,-11.55,-11.55,0,*51
1483369457.98,4077,10.81,72426.0,-10.59,-11.51,-11.51,0,*59
1483369459.26,4078,10.81,72430.8,-10.59,-11.51,-11.51,0,*56
1483369460.55,4079,10.81,72420.3,-10.59,-11.59,-11.51,0,*5F
1483369461.83,4080,10.81,72424.5,-10.59,-11.51,-11.51,0,*51
1483369463.11,4081,10.81,72428.5,-10.59,-11.51,-11.51,0,*50
1483369464.4,4082,10.81,72434.3,-10.59,-11.51,-11.51,0,*53
1483369465.68,4083,10.81,72442.0,-10.59,-11.51,-11.51,0,*52
1483369466.96,4084,10.81,72438.8,-10.59,-11.59,-11.59,0,*55
1483369468.25,4085,10.81,72444.5,-10.59,-11.59,-11.51,0,*5C
1483369469.53,4086,10.81,72450.8,-10.59,-11.51,-11.51,0,*57
1483369470.81,4087,10.81,72448.3,-10.59,-11.51,-11.51,0,*56
1483369472.1,4088,10.81,72454.8,-10.59,-11.51,-11.59,0,*51
1483369473.39,4089,10.81,72446.8,-10.59,-11.63,-11.59,0,*51
1483369474.67,4090,10.81,72430.3,-10.59,-11.85,-11.85,0,*50
1483369475.95,4091,10.81,72428.0,-10.59,-11.77,-11.77,0,*51
1483369477.25,4092,10.81,72430.5,-10.59,-11.63,-11.63,0,*52
1483369478.54,4093,10.81,72420.8,-10.59,-11.63,-11.63,0,*53
1483369479.83,4094,10.81,72414.5,-10.59,-11.63,-11.59,0,*5D
1483369481.12,4095,10.81,72406.8,-10.59,-11.63,-11.59,0,*5C
1483369482.4,4096,10.81,72408.0,-10.59,-11.63,-11.59,0,*5F
1483369483.69,4097,10.81,72410.8,-10.59,-11.59,-11.59,0,*57
1483369484.97,4098,10.81,72410.8,-10.59,-11.51,-11.51,0,*58
1483369486.26,4099,10.81,72418.0,-10.59,-11.51,-11.59,0,*51
1483369487.54,4100,10.81,72422.3,-10.59,-11.59,-11.59,0,*58
1483369488.83,4101,10.81,72420.8,-10.59,-11.63,-11.59,0,*50
1483369490.1,4102,10.81,72424.8,-10.57,-11.55,-11.55,0,*54
1483369491.38,4103,10.81,72434.0,-10.59,-11.51,-11.59,0,*53
1483369492.67,4104,10.81,72440.0,-10.59,-11.63,-11.59,0,*55
1483369493.95,4105,10.81,72438.8,-10.59,-11.85,-11.73,0,*54
1483369495.24,4106,10.81,72424.5,-10.59,-11.85,-11.85,0,*5E
1483369496.52,4107,10.81,72444.0,-10.59,-11.85,-11.77,0,*52
1483369497.8,4108,10.81,72432.8,-10.59,-11.85,-11.77,0,*5D
1483369499.09,4109,10.81,72438.3,-10.59,-11.89,-11.85,0,*5D
1483369500.37,4110,10.81,72432.3,-10.59,-11.85,-11.77,0,*54
1483369501.65,4111,10.81,72428.3,-10.59,-11.85,-11.85,0,*58
1483369502.94,4112,10.81,72438.3,-10.59,-11.77,-11.85,0,*56
1483369504.22,4113,10.81,72424.8,-10.59,-11.89,-11.85,0,*56
1483369505.51,4114,10.81,72422.8,-10.59,-11.89,-11.97,0,*52
1483369506.79,4115,10.81,72412.0,-10.59,-11.97,-11.97,0,*5C
1483369508.06,4116,10.81,72404.8,-10.59,-11.97,-12.03,0,*51
1483369509.29,4117,10.81,72406.3,-10.59,-12.03,-12.03,0,*5E
1483369510.58,4118,10.81,72408.8,-10.63,-12.15,-12.07,0,*5B
1483369511.86,4119,10.81,72410.8,-10.63,-12.07,-12.07,0,*59
1483369513.14,4120,10.81,72418.0,-10.63,-12.15,-12.15,0,*53
1483369514.44,4121,10.81,72422.3,-10.63,-11.93,-11.93,0,*52
1483369515.65,4122,10.81,72422.3,-10.65,-12.03,-12.03,0,*57
1483369516.91,4123,10.81,72414.0,-10.63,-11.89,-12.03,0,*51
1483369518.19,4124,10.81,72416.3,-10.63,-12.07,-12.07,0,*57
1483369519.45,4125,10.81,72402.5,-10.63,-12.07,-12.03,0,*52
1483369520.72,4126,10.81,72398.5,-10.65,-11.93,-11.89,0,*58
1483369521.95,4127,10.81,72394.3,-10.63,-12.03,-12.03,0,*54
1483369523.24,4128,10.81,72388.8,-10.63,-12.15,-12.15,0,*5B
1483369524.5,4129,10.81,72402.0,-10.63,-12.15,-12.21,0,*5D
1483369525.76,4130,10.81,72400.8,-10.65,-12.07,-12.15,0,*57
1483369527.04,4131,10.81,72402.8,-10.63,-12.07,-12.07,0,*53
1483369528.33,4132,10.81,72406.5,-10.63,-12.07,-12.07,0,*50
1483369529.59,4133,10.81,72402.0,-10.63,-12.03,-11.93,0,*5B
1483369530.85,4134,10.81,72408.5,-10.65,-11.93,-11.81,0,*53
1483369532.13,4135,10.81,72412.0,-10.63,-11.81,-11.77,0,*5E
1483369533.38,4136,10.81,72412.5,-10.65,-11.81,-11.77,0,*5B
1483369534.63,4137,10.81,72410.5,-10.65,-11.81,-11.81,0,*53
1483369535.89,4138,10.81,72406.3,-10.65,-11.81,-11.67,0,*54
1483369537.15,4139,10.81,72414.8,-10.65,-11.67,-11.67,0,*5D
1483369538.44,4140,10.81,72418.3,-10.63,-11.67,-11.63,0,*51
1483369539.7,4141,10.81,72416.8,-10.65,-11.67,-11.67,0,*52
1483369540.96,4142,10.81,72418.5,-10.65,-11.81,-11.77,0,*58
1483369542.21,4143,10.81,72430.0,-10.65,-11.67,-11.77,0,*51
1483369543.49,4144,10.81,72428.0,-10.63,-11.67,-11.77,0,*50
1483369544.78,4145,10.81,72428.8,-10.63,-11.67,-11.67,0,*50
1483369546.07,4146,10.81,72436.8,-10.63,-11.67,-11.67,0,*53
1483369547.35,4147,10.81,72420.3,-10.63,-11.77,-11.77,0,*52
1483369548.61,4148,10.81,72422.0,-10.65,-11.89,-11.89,0,*5B
1483369549.87,4149,10.81,72422.5,-10.65,-12.07,-11.93,0,*54
1483369551.11,4150,10.81,72430.8,-10.65,-12.03,-12.07,0,*56
1483369552.37,4151,10.81,72416.5,-10.65,-12.07,-12.07,0,*53
1483369553.63,4152,10.81,72418.3,-10.63,-12.07,-12.03,0,*52
1483369554.89,4153,10.81,72408.8,-10.63,-12.03,-11.93,0,*5D
1483369556.12,4154,10.81,72414.8,-10.63,-12.03,-12.03,0,*50
1483369557.33,4155,10.81,72410.0,-10.65,-12.03,-12.03,0,*57
1483369558.57,4156,10.81,72412.5,-10.63,-12.03,-12.03,0,*52
1483369559.77,4157,10.81,72408.0,-10.65,-12.03,-12.03,0,*55
1483369560.98,4158,10.81,72410.8,-10.65,-12.03,-12.03,0,*5A
1483369562.22,4159,10.81,72392.3,-10.65,-12.03,-11.93,0,*51
1483369563.46,4160,10.81,72392.8,-10.65,-12.07,-12.03,0,*55
1483369564.72,4161,10.81,72396.0,-10.65,-12.15,-12.07,0,*53
1483369565.95,4162,10.81,72374.5,-10.65,-12.03,-12.07,0,*57
1483369567.22,4163,10.81,72380.0,-10.67,-11.93,-12.03,0,*5A
1483369568.46,4164,10.81,72374.8,-10.67,-12.03,-12.03,0,*57
1483369569.72,4165,10.81,72388.8,-10.67,-12.07,-12.03,0,*52
1483369570.96,4166,10.81,72400.5,-10.67,-12.03,-12.03,0,*55
1483369572.23,4167,10.81,72408.8,-10.67,-11.93,-12.03,0,*5E
1483369573.52,4168,10.81,72418.3,-10.67,-11.89,-11.89,0,*5B
1483369574.8,4169,10.81,72408.8,-10.67,-11.89,-11.89,0,*5A
1483369576.1,4170,10.81,72404.3,-10.67,-11.93,-11.93,0,*52
1483369577.4,4171,10.81,72404.5,-10.67,-11.93,-11.89,0,*58
1483369578.66,4172,10.81,72402.8,-10.67,-12.03,-11.93,0,*5A
1483369579.95,4173,10.81,72400.5,-10.67,-12.07,-12.07,0,*51
1483369581.24,4174,10.81,72408.5,-10.67,-12.07,-11.93,0,*58
1483369582.52,4175,10.81,72410.0,-10.67,-11.93,-11.81,0,*54
1483369583.81,4176,10.81,72404.5,-10.67,-11.89,-11.81,0,*5C
1483369585.07,4177,10.81,72416.8,-10.69,-11.93,-11.85,0,*5C
1483369586.35,4178,10.81,72418.0,-10.67,-11.81,-11.77,0,*53
1483369587.63,4179,10.81,72418.5,-10.67,-11.89,-11.81,0,*53
1483369588.92,4180,10.81,72422.5,-10.67,-11.67,-11.81,0,*55
1483369590.19,4181,10.81,72424.0,-10.67,-11.81,-11.77,0,*55
1483369591.45,4182,10.81,72420.3,-10.69,-11.73,-11.85,0,*58
1483369592.73,4183,10.81,72420.0,-10.67,-11.81,-11.89,0,*56
1483369594.01,4184,10.81,72428.0,-10.67,-11.81,-11.77,0,*50
1483369595.3,4185,10.81,72428.5,-10.67,-11.89,-11.77,0,*59
1483369596.58,4186,10.81,72430.8,-10.67,-11.81,-11.77,0,*52
1483369597.83,4187,10.81,72432.0,-10.65,-11.89,-11.77,0,*59
1483369599.08,4188,10.81,72434.0,-10.65,-11.81,-11.77,0,*5E
1483369600.34,4189,10.81,72428.5,-10.65,-11.89,-11.77,0,*57
1483369601.58,4190,10.81,72418.5,-10.65,-12.03,-11.89,0,*5F
1483369602.83,4191,10.81,72416.3,-10.65,-11.89,-11.81,0,*57
1483369604.09,4192,10.81,72412.0,-10.65,-11.81,-11.89,0,*54
1483369605.38,4193,10.81,72400.5,-10.63,-11.93,-11.89,0,*50
1483369606.65,4194,10.81,72390.0,-10.65,-11.93,-11.93,0,*5A
1483369607.92,4195,10.81,72382.3,-10.65,-11.93,-11.93,0,*5B
1483369609.13,4196,10.81,72380.0,-10.65,-12.03,-12.03,0,*58
1483369610.37,4197,10.81,72380.0,-10.65,-12.15,-12.03,0,*5E
1483369611.61,4198,10.81,72382.5,-10.65,-12.07,-12.03,0,*52
1483369612.89,4199,10.81,72396.3,-10.63,-11.89,-11.81,0,*59
1483369614.14,4200,10.81,72400.5,-10.65,-11.81,-11.81,0,*54
1483369615.39,4201,10.81,72402.8,-10.65,-11.81,-11.81,0,*55
1483369616.65,4202,10.81,72402.8,-10.65,-11.77,-11.77,0,*56
1483369617.9,4203,10.81,72416.8,-10.65,-11.81,-11.81,0,*57
1483369619.16,4204,10.81,72418.3,-10.65,-11.89,-11.81,0,*58
1483369620.42,4205,10.81,72428.5,-10.65,-11.93,-11.93,0,*51
1483369621.63,4206,10.81,72424.8,-10.65,-12.03,-12.03,0,*52
1483369622.89,4207,10.81,72426.8,-10.63,-12.03,-11.93,0,*5F
1483369624.16,4208,10.81,72412.5,-10.65,-11.93,-11.93,0,*5C
1483369625.41,4209,10.81,72414.8,-10.65,-11.93,-12.03,0,*57
1483369626.67,4210,10.81,72414.8,-10.67,-12.15,-12.29,0,*58
1483369627.91,4211,10.81,72424.8,-10.65,-12.21,-12.15,0,*53
1483369629.17,4212,10.81,72412.5,-10.65,-12.15,-12.07,0,*54
1483369630.44,4213,10.81,72414.0,-10.65,-12.07,-11.93,0,*58
1483369631.65,4214,10.81,72410.3,-10.65,-12.03,-12.03,0,*51
1483369632.88,4215,10.81,72414.5,-10.65,-12.03,-11.93,0,*5A
1483369634.12,4216,10.81,72420.0,-10.65,-12.03,-11.89,0,*52
1483369635.42,4217,10.81,72406.0,-10.67,-11.93,-11.93,0,*50
1483369636.69,4218,10.81,72412.0,-10.67,-11.81,-11.81,0,*5F
1483369637.95,4219,10.81,72428.5,-10.69,-11.81,-11.73,0,*5D
1483369639.23,4220,10.81,72426.3,-10.67,-11.81,-11.89,0,*5C
1483369640.49,4221,10.81,72404.5,-10.69,-11.97,-11.85,0,*58
1483369641.77,4222,10.81,72400.8,-10.67,-11.81,-11.81,0,*56
1483369643.06,4223,10.81,72386.0,-10.67,-11.67,-11.67,0,*57
1483369644.34,4224,10.81,72376.8,-10.67,-11.67,-11.77,0,*51
1483369645.63,4225,10.81,72382.5,-10.67,-11.63,-11.67,0,*55
1483369646.92,4226,10.81,72396.8,-10.67,-11.63,-11.63,0,*52
1483369648.21,4227,10.81,72410.8,-10.67,-11.77,-11.77,0,*53
1483369649.49,4228,10.81,72424.8,-10.67,-11.89,-11.77,0,*5D
1483369650.77,4229,10.81,72434.8,-10.67,-11.81,-11.81,0,*5D
1483369652.05,4230,10.81,72424.5,-10.67,-11.81,-11.77,0,*5C
1483369653.33,4231,10.81,72420.0,-10.67,-11.67,-11.77,0,*55
1483369654.62,4232,10.81,72434.5,-10.67,-11.67,-11.67,0,*57
1483369655.9,4233,10.81,72432.3,-10.67,-11.67,-11.77,0,*57
1483369657.19,4234,10.81,72428.0,-10.67,-11.89,-11.81,0,*59
1483369658.47,4235,10.81,72424.8,-10.67,-11.89,-11.89,0,*50
1483369659.74,4236,10.81,72418.8,-10.67,-12.03,-12.07,0,*57
1483369661.0,4237,10.81,72368.8,-10.67,-12.07,-12.03,0,*56
1483369662.29,4238,10.81,72376.3,-10.67,-11.93,-11.89,0,*56
1483369663.5,4239,10.81,72392.3,-10.65,-12.03,-12.03,0,*5E
1483369664.75,4240,10.81,72396.3,-10.65,-11.93,-12.03,0,*5A
1483369666.02,4241,10.81,72390.3,-10.65,-11.93,-11.93,0,*51
1483369667.28,4242,10.81,72402.0,-10.65,-11.93,-11.89,0,*59
1483369668.57,4243,10.81,72406.0,-10.67,-11.89,-11.93,0,*5A
1483369669.81,4244,10.81,72402.5,-10.67,-12.03,-12.03,0,*56
1483369671.07,4245,10.81,72410.0,-10.67,-12.07,-12.03,0,*53
1483369672.34,4246,10.81,72414.5,-10.67,-12.03,-11.93,0,*5E
1483369673.57,4247,10.81,72406.5,-10.67,-12.03,-12.03,0,*55
1483369674.86,4248,10.81,72406.3,-10.67,-12.07,-11.93,0,*54
1483369676.1,4249,10.81,72406.3,-10.65,-12.15,-12.03,0,*5E
1483369677.34,4250,10.81,72408.3,-10.65,-12.07,-12.03,0,*55
1483369678.62,4251,10.81,72406.3,-10.63,-12.15,-12.07,0,*55
1483369679.86,4252,10.81,72398.8,-10.65,-12.35,-12.29,0,*5E
1483369681.12,4253,10.81,72368.0,-10.65,-12.35,-12.15,0,*50
1483369682.38,4254,10.81,72366.5,-10.65,-12.35,-12.07,0,*54
1483369683.65,4255,10.81,72380.3,-10.65,-12.15,-11.93,0,*59
1483369684.88,4256,10.81,72394.8,-10.65,-12.03,-11.89,0,*56
1483369686.15,4257,10.81,72404.3,-10.65,-11.93,-11.89,0,*5D
1483369687.42,4258,10.81,72410.8,-10.65,-11.93,-11.93,0,*59
1483369688.69,4259,10.81,72400.0,-10.67,-11.93,-12.03,0,*50
1483369689.91,4260,10.81,72412.5,-10.65,-12.21,-12.29,0,*5A
1483369691.17,4261,10.81,72418.8,-10.65,-12.15,-12.15,0,*53
1483369692.39,4262,10.81,72412.0,-10.65,-12.21,-12.29,0,*58
1483369693.63,4263,10.81,72404.8,-10.67,-12.29,-12.29,0,*53
1483369694.87,4264,10.81,72392.3,-10.67,-12.29,-12.29,0,*54
1483369696.14,4265,10.81,72376.0,-10.67,-12.29,-12.35,0,*58
1483369697.4,4266,10.81,72360.8,-10.65,-12.35,-12.35,0,*54
1483369698.67,4267,10.81,72360.8,-10.65,-12.35,-12.35,0,*55
1483369699.91,4268,10.81,72374.5,-10.65,-12.43,-12.35,0,*5B
1483369701.14,4269,10.81,72344.8,-10.65,-12.43,-12.35,0,*5A
1483369702.38,4270,10.81,72344.3,-10.67,-12.43,-12.43,0,*51
1483369703.61,4271,10.81,72364.3,-10.69,-12.57,-12.47,0,*5F
1483369704.85,4272,10.81,72370.3,-10.67,-12.47,-12.43,0,*57
1483369706.06,4273,10.81,72400.5,-10.69,-12.47,-12.39,0,*55
1483369707.32,4274,10.81,72400.5,-10.67,-12.43,-12.35,0,*54